Retour au catalogue

METEOR 2-8 DEB

ActifPO
NORAD 36354·DEBRIS·🇷🇺 Russia

Lancé Mar 25, 1982 depuis Plesetsk Cosmodrome

Loading…

Prochains Passages (prochaines 24 heures)

TLE

PériméSource: Space-Track

Époque: Sep 1, 2026, 09:20 UTC

1 36354U 82025AQ  26244.38952086  .00002368  00000-0  92979-3 0  9995
2 36354  82.4915 126.3478 0014220 192.9826 167.0995 14.28973600190657

Suivez METEOR 2-8 DEB en temps réel avec AllMySat

Download on the App Store